Location: Kerguer�zec
(48.4509°N, 4.7600°W)
Time: 21:04:50
(UTC+00:00)

N. Korean satellite - Pass Details

Date: 15 March 2021
Orbit: 452 x 499 km, 97.2° (Epoch: 15 April)

Event Time Altitude Azimuth Distance (km) Brightness Sun altitude
Rises 04:42:31 0° 30° (NNE) 2,569 11.0 -18.7°
Reaches altitude 10° 04:45:22 10° 55° (NE) 1,691 10.4 -18.3°
Maximum altitude 04:47:27 15° 90° (E) 1,426 9.9 -18.0°
Drops below altitude 10° 04:49:33 10° 126° (SE) 1,693 9.8 -17.6°
Sets 04:52:24 0° 151° (SSE) 2,576 10.4 -17.2°
